Location: ??????
(41.3164°N, 22.6615°E)
Time: 17:44:16
(UTC+00:00)

CZ-2C R/B - Pass Details

Date: 30 May 2022
Orbit: 785 x 869 km, 98.2° (Epoch: 28 June)

Event Time Altitude Azimuth Distance (km) Brightness Sun altitude
Rises 02:09:30 0° 138° (SE) 3,274 5.8 -8.6°
Reaches altitude 10° 02:12:01 10° 128° (SE) 2,357 5.2 -8.2°
Maximum altitude 02:16:33 32° 67° (ENE) 1,365 4.7 -7.5°
Drops below altitude 10° 02:21:11 10° 6° (N) 2,409 5.8 -6.8°
Sets 02:23:46 0° 357° (N) 3,359 6.3 -6.4°
